Location: New Frontier Mobile Home Park
(32.8448°N, 116.9675°W)
Time: 23:08:15
(UTC+00:00)

Cosmos 1833 Rocket - Pass Details

Date: 14 July 2020
Orbit: 832 x 840 km, 71.0° (Epoch: 05 August)

Event Time Altitude Azimuth Distance (km) Brightness Sun altitude
Exits shadow 09:13:29 50° 50° (NE) 1,048 3.3 -32.4°
Drops below altitude 10° 09:17:44 10° 27° (NNE) 2,445 6.0 -32.0°
Sets 09:20:12 0° 24° (NNE) 3,383 7.0 -31.8°
